Location: Observatory
(52.1446°N, 0.4624°W)
Time: 06:24:09
(UTC+00:00)

ISS - Pass Details

Date: 09 December 2017
Orbit: 403 x 407 km, 51.6° (Epoch: 12 December)

Event Time Altitude Azimuth Distance (km) Brightness Sun altitude
Rises 18:52:01 0° 282° (WNW) 2,333 1.2 -26.6°
Reaches altitude 10° 18:54:10 10° 275° (W) 1,469 0.0 -26.9°
Enters shadow 18:55:37 22° 261° (W) 944 -1.3 -27.1°
